Location: Broletto
(44.6000°N, 10.5833°E)
Time: 02:31:10
(UTC+00:00)

Cosmos 407 Rocket - Pass Details

Date: 18 April 2021
Orbit: 743 x 787 km, 74.0° (Epoch: 08 May)

Event Time Altitude Azimuth Distance (km) Brightness Sun altitude
Exits shadow 20:53:35 25° 224° (SW) 1,484 4.9 -25.5°
Maximum altitude 20:56:29 58° 294° (WNW) 876 4.0 -25.8°
Drops below altitude 10° 21:01:35 10° 14° (NNE) 2,287 6.4 -26.4°
Sets 21:04:01 0° 18° (NNE) 3,222 7.2 -26.7°
